Temp
20 20 21 21 21 20 20 20 19 19 19 18 19 19 19 19 19 18 19 18 18 18 18 18 18 18 18 17 17 17 18 18 18 18 18 17 17 17 17 18 18 18 17
21 20 21 20 20 20 20 20 20 19 19 19 19 19 19 18 18 18 18 18 18 18 18 18 18 17 17 17 17 17 18 18 18 18 18 17 17 17 18 18 17 17 17
20 20 20 21 20 20 20 20 20 19 19 19 19 19 18 18 18 18 18 18 17 17 17 17 17 17 17 17 17 18 18 18 17 17 17 17 17 17 17 18 18 17 17
19 19 20 20 20 20 20 20 19 19 19 19 19 18 18 18 19 18 18 18 17 17 17 16 16 17 17 17 18 18 18 18 17 17 17 17 17 17 17 18 17 17 17
19 19 20 20 20 20 20 20 19 19 19 19 19 18 18 18 18 18 18 18 18 17 17 16 17 17 17 17 18 18 18 18 18 17 17 17 18 17 17 17 17 17 17
19 19 20 20 20 20 20 19 19 20 19 19 19 19 18 18 18 18 18 18 18 19 18 17 17 17 17 17 18 18 18 18 18 18 17 17 17 17 17 16 17 17 18
19 19 19 20 20 20 19 19 19 19 19 20 19 19 19 18 18 19 18 18 18 18 17 17 17 17 17 17 18 18 18 18 17 17 17 17 17 17 16 16 16 17 16
19 19 19 20 20 20 19 19 19 19 20 19 19 19 19 19 19 18 17 17 17 17 17 16 17 17 17 17 17 17 18 18 17 17 17 16 16 16 15 16 16 16 15
20 20 20 20 20 19 19 19 19 19 20 20 19 19 19 19 18 18 17 18 17 18 17 17 17 17 17 17 17 17 18 17 17 17 17 16 16 16 16 16 15 14 14
20 21 21 20 20 19 19 19 19 19 19 20 19 18 18 18 18 17 17 17 17 18 18 18 18 18 18 18 18 18 18 18 18 17 17 17 16 16 16 16 15 14 14
20 20 20 20 20 19 19 19 19 19 19 19 19 19 18 18 17 17 17 17 17 17 17 17 17 17 18 18 18 18 18 18 18 17 17 17 16 16 16 15 15 14 14
19 19 19 19 19 19 19 19 19 19 19 19 19 19 18 18 18 18 17 17 17 17 17 17 17 18 18 18 18 18 18 17 18 18 17 17 16 16 16 15 15 15 14
18 18 19 19 19 19 19 19 19 19 19 19 18 18 18 18 18 18 18 17 17 17 17 17 17 17 17 18 18 18 18 17 18 18 18 17 17 16 15 15 15 15 14
18 18 18 19 18 19 19 19 19 18 18 18 18 18 18 18 18 18 18 18 18 18 18 17 17 17 17 17 17 18 17 18 18 18 18 17 17 16 15 15 15 15 14
18 19 19 19 19 19 19 18 19 19 19 18 18 18 18 18 18 18 18 18 18 18 18 17 17 17 17 17 17 17 17 17 17 17 18 18 17 17 16 15 15 14 13
18 19 19 19 19 19 19 19 19 19 19 18 18 18 18 18 18 18 18 18 18 18 18 18 17 17 17 17 17 17 17 17 17 17 18 18 17 17 16 15 15 14 14
18 20 20 20 19 19 19 19 19 19 19 19 19 18 18 18 18 18 18 18 18 18 18 17 18 17 17 17 17 18 17 18 18 18 17 17 17 17 17 16 15 15 14
19 20 20 20 20 19 19 20 19 19 19 19 19 19 19 19 19 18 18 18 18 18 17 17 17 17 17 17 18 18 18 18 18 18 17 17 17 17 17 17 16 15 15
19 20 19 19 20 20 20 20 20 19 19 19 19 19 19 19 19 18 18 19 18 18 18 18 18 17 17 17 18 17 17 17 17 17 17 17 17 17 17 17 16 16 15
20 20 19 19 19 19 19 19 19 19 19 19 19 20 19 19 19 18 18 18 18 18 18 18 18 18 17 16 16 16 17 17 17 17 17 17 17 17 16 17 16 16 15
19 20 20 20 20 19 19 18 18 19 19 19 20 19 19 19 19 18 18 18 18 18 18 18 17 17 16 17 15 15 17 17 17 18 17 17 17 16 16 16 16 15 15
18 18 19 20 20 19 19 19 18 19 19 19 19 19 18 18 18 17 17 17 17 17 17 17 16 15 15 16 15 13 16 17 17 18 17 17 17 17 16 15 15 15 15
18 17 18 18 18 18 18 17 17 17 17 18 18 17 17 17 17 17 16 16 16 16 16 16 16 15 14 15 15 15 14 16 14 17 17 17 17 17 16 16 16 15 15
16 16 17 17 17 17 17 17 17 17 17 17 17 17 16 16 17 17 17 16 16 15 16 15 15 15 15 14 14 14 14 13 13 14 15 16 16 16 15 15 15 15 15
15 15 15 16 16 16 17 17 17 17 16 16 16 16 16 16 16 15 15 15 15 16 15 14 15 15 14 14 14 13 13 12 12 11 12 13 14 15 14 14 14 13 13
14 14 14 15 15 15 15 15 15 15 15 14 14 15 14 14 14 13 14 14 14 14 14 13 13 13 14 14 14 14 14 13 12 10 10 10 11 12 14 13 13 12 12
Height
821 825 829 832 834 836 838 840 842 844 845 846 846 847 847 848 849 850 850 852 853 854 854 855 855 856 856 856 857 857 857 857 857 858 858 858 858 858 858 858 858 858 857
819 825 829 832 834 836 838 841 842 844 846 847 848 848 848 850 851 852 852 853 855 856 856 857 858 858 858 859 859 860 860 860 860 860 860 860 860 860 860 860 859 860 859
819 825 829 832 834 837 838 841 843 845 846 848 849 849 850 851 853 854 854 855 857 858 857 859 859 860 860 861 862 862 862 863 863 862 862 863 863 863 862 861 861 861 861
820 825 829 833 835 837 839 841 843 846 847 849 850 850 852 852 854 855 856 858 859 859 859 860 861 862 862 863 864 865 865 865 865 865 864 865 865 865 864 862 862 862 862
821 826 829 833 836 838 841 842 845 847 849 849 851 851 853 854 855 856 858 859 860 859 859 861 862 863 864 865 866 867 867 867 867 866 866 867 867 867 866 866 865 865 864
821 827 830 833 836 839 842 844 846 848 850 851 852 853 854 856 857 858 860 861 861 860 861 863 864 865 866 867 868 868 868 868 868 868 869 869 869 868 868 867 867 866 865
822 828 831 834 838 839 843 845 847 849 851 851 853 854 855 857 858 860 862 862 862 862 863 865 865 866 867 868 868 869 869 870 870 870 870 870 871 869 869 868 868 867 866
824 828 833 835 839 841 843 846 848 850 851 852 854 855 857 859 860 861 862 863 863 863 865 867 867 867 868 869 870 870 870 871 871 871 871 871 871 871 870 869 868 867 866
827 830 833 836 840 842 844 847 849 850 851 853 855 856 858 860 862 862 863 863 864 865 867 868 868 868 869 870 870 871 871 871 872 872 872 872 872 871 870 870 869 868 867
828 831 834 836 840 842 845 847 849 850 852 853 854 856 858 860 862 863 864 864 865 866 868 869 868 869 869 870 870 871 871 871 871 872 871 872 872 872 870 869 869 868 867
830 832 835 837 839 842 845 847 849 850 852 853 854 856 858 860 861 862 863 864 865 867 869 869 869 869 869 870 870 871 871 871 871 871 871 871 872 872 871 869 869 869 868
831 833 835 838 839 842 844 847 848 850 852 853 854 856 858 860 860 862 863 864 865 867 868 869 869 869 869 869 870 870 870 871 871 870 870 870 870 871 870 869 869 868 867
830 832 833 837 839 842 844 846 848 850 851 853 855 856 858 859 860 860 861 863 864 866 868 868 868 868 868 868 869 869 869 869 869 869 869 869 869 870 869 869 868 867 867
827 830 832 836 838 841 843 845 847 849 851 853 854 855 857 858 859 860 861 862 863 865 866 866 866 867 867 867 868 868 867 867 868 867 867 868 868 868 868 867 867 866 866
827 828 831 834 837 840 842 844 846 848 849 852 853 854 855 857 858 858 859 860 862 864 864 865 865 865 865 866 866 866 866 865 866 865 865 866 866 866 866 866 866 865 865
826 828 830 832 835 838 840 842 844 846 848 850 851 852 854 855 856 857 858 859 861 862 862 863 863 863 863 863 863 863 863 863 863 862 862 862 863 863 863 863 864 864 864
824 827 829 830 833 835 837 840 842 844 846 848 849 850 851 852 853 854 856 857 858 860 860 860 860 860 860 860 860 860 860 860 859 859 859 859 859 859 859 860 861 862 862
823 823 828 829 830 833 835 837 839 842 843 845 846 848 849 850 851 852 853 854 855 856 857 857 857 856 856 856 856 856 856 856 856 855 855 855 855 855 855 855 856 857 859
820 822 824 826 828 830 832 834 836 839 840 842 844 845 845 846 848 848 849 850 852 852 852 853 853 853 852 852 852 852 852 852 851 851 850 850 850 850 850 850 851 853 855
818 819 820 823 825 827 829 831 833 835 837 838 839 840 842 843 844 845 845 846 847 848 848 848 848 848 848 847 847 846 845 845 845 845 845 845 843 843 844 845 847 848 849
814 816 816 819 821 823 825 827 828 829 831 833 834 836 837 838 840 840 841 842 842 842 842 843 843 843 842 842 843 841 839 839 838 839 840 839 837 837 838 840 842 843 843
811 813 813 814 817 818 820 822 824 826 827 828 830 831 833 834 835 836 836 836 837 837 837 837 837 838 837 837 839 840 837 835 833 834 835 835 835 834 834 835 836 836 837
808 811 811 812 814 816 817 819 821 823 824 826 826 828 828 829 830 830 831 831 831 831 831 832 832 833 832 832 833 836 836 832 832 831 832 832 832 832 832 831 831 831 831
807 809 809 811 813 815 816 818 819 820 822 823 824 825 825 826 826 826 827 826 826 826 826 827 827 827 827 828 828 829 829 830 831 830 830 829 830 830 830 829 828 827 827
807 809 809 811 812 814 815 817 818 819 821 822 822 822 823 823 823 823 823 823 823 822 822 822 822 822 822 822 822 823 825 826 828 830 828 829 828 827 827 827 826 825 825
806 808 809 810 812 813 814 816 817 819 820 821 821 821 821 821 821 821 821 820 820 819 818 818 817 817 817 817 817 818 819 821 823 825 826 826 826 825 823 824 824 823 822
Wind_Speed
19 23 22 19 18 17 16 15 14 13 12 11 9 9 9 9 12 12 17 15 13 12 14 13 14 15 16 17 16 16 16 16 16 15 14 13 13 14 12 12 10 10 10
28 23 23 21 19 18 16 14 12 11 10 9 8 9 10 12 14 16 15 14 13 12 13 13 13 15 15 16 15 15 15 15 14 14 14 15 13 10 9 9 9 8 8
30 23 22 20 19 18 16 14 13 12 11 10 9 10 11 14 13 15 15 14 13 11 12 12 13 13 14 13 13 13 13 13 13 11 11 10 11 12 12 5 6 8 8
27 23 21 20 19 17 16 15 14 13 10 7 7 12 12 16 15 14 13 12 12 12 13 12 12 12 12 11 11 10 11 12 12 13 10 10 10 11 16 14 9 9 10
24 24 23 21 19 18 16 17 14 10 7 7 9 12 13 14 13 14 11 10 10 12 13 12 12 12 11 11 10 10 9 9 11 14 13 11 10 10 13 16 14 11 13
24 22 21 20 20 18 18 17 12 8 6 8 14 12 11 13 12 13 9 8 9 11 12 11 11 11 10 9 9 9 9 9 10 11 12 12 10 10 9 10 8 7 8
25 22 21 20 19 20 18 15 10 7 6 11 15 13 8 11 11 8 6 7 8 10 10 10 10 9 8 7 8 7 7 7 8 8 8 7 7 6 7 6 6 6 6
24 22 20 19 18 19 17 13 9 6 7 13 14 13 11 10 11 10 7 7 7 8 8 8 8 8 6 5 5 6 4 4 6 6 6 5 6 7 7 7 7 7 7
23 20 19 18 18 17 16 13 9 5 7 12 15 15 10 9 8 7 4 6 5 5 6 6 7 6 4 3 3 3 3 2 3 4 4 4 4 5 7 8 7 7 7
22 20 19 18 18 18 15 12 8 7 6 9 15 14 13 12 10 8 6 4 3 3 5 6 5 4 3 2 2 1 1 1 1 2 1 2 3 3 6 7 7 6 6
19 19 20 18 18 18 16 13 10 8 7 7 10 12 11 11 10 9 7 6 4 3 4 4 3 3 2 3 3 4 3 2 3 3 2 1 0 2 6 7 7 6 5
16 14 15 18 18 18 16 14 12 10 8 7 8 8 8 8 8 8 7 7 6 5 5 5 3 3 3 3 4 5 6 5 4 5 4 4 3 4 6 7 6 6 5
16 15 16 18 18 18 17 15 14 12 10 8 7 7 7 7 8 8 8 8 7 7 8 7 6 5 4 5 5 6 7 8 7 7 7 6 6 6 6 8 7 6 5
21 20 17 19 19 18 16 14 13 13 12 11 9 9 8 8 8 8 8 8 9 9 9 9 8 7 7 7 8 8 8 9 9 9 9 9 9 9 8 8 8 7 5
21 20 18 19 19 18 17 15 14 14 14 12 12 12 11 10 9 8 9 10 10 11 10 10 9 9 10 10 11 11 11 12 12 12 11 11 12 12 12 11 10 8 7
21 20 18 19 19 19 17 16 15 14 15 14 14 14 14 13 12 12 11 11 12 12 12 12 11 11 12 12 13 14 14 14 15 15 14 14 14 15 16 14 13 11 10
20 18 19 19 19 19 19 17 16 15 15 15 15 15 15 15 15 14 14 14 14 14 14 15 15 16 16 16 16 15 16 16 16 17 17 18 17 17 18 18 16 15 13
19 20 19 19 18 18 19 18 18 17 16 16 16 15 15 15 15 17 18 18 17 17 17 18 18 19 20 20 20 20 19 20 20 21 22 21 21 20 19 20 20 19 16
17 18 19 19 19 18 18 19 20 20 20 18 17 17 16 16 17 19 20 20 19 20 20 21 21 21 21 21 23 24 24 24 24 24 25 26 26 25 24 22 22 23 22
16 18 18 19 20 20 17 18 19 23 23 22 22 22 20 20 20 21 22 23 23 23 23 23 23 23 23 21 22 24 24 25 25 25 26 27 29 28 27 25 23 23 25
15 17 19 18 17 17 19 18 18 20 22 24 24 24 22 22 21 21 22 23 23 24 25 25 23 22 21 23 17 16 22 20 19 20 19 21 24 25 26 26 24 24 25
13 15 16 16 18 20 20 18 16 14 18 21 19 19 20 22 23 24 26 26 26 25 25 24 23 17 18 21 8 4 4 8 14 16 15 14 15 16 19 22 23 24 25
12 11 10 11 11 12 16 19 17 16 14 12 13 13 15 16 18 19 20 21 22 22 24 25 25 23 16 18 18 9 1 4 2 8 11 14 13 14 12 13 15 16 19
11 10 10 10 9 8 8 9 11 12 11 10 8 9 9 10 10 12 12 14 16 17 19 21 22 22 20 15 16 19 20 8 2 2 3 7 11 14 14 14 14 14 14
12 11 10 9 8 7 5 5 5 5 6 6 6 7 7 8 8 9 10 11 12 14 16 17 18 20 22 20 18 11 11 14 12 6 2 5 6 9 13 13 13 16 16
13 12 12 10 9 7 6 4 3 3 3 4 4 5 5 4 4 3 4 5 6 8 9 12 14 17 19 20 20 17 15 7 5 6 4 6 6 8 10 12 16 14 14
Wind_Direction
174 170 170 166 162 158 153 141 138 131 120 113 108 103 99 101 106 109 109 100 94 92 92 90 92 90 89 88 83 80 79 80 80 83 82 85 78 76 79 78 83 79 75
163 165 172 164 165 157 156 149 144 136 125 117 113 104 102 110 112 110 108 100 94 93 95 95 94 93 91 88 84 79 79 78 77 78 79 79 77 75 75 85 84 69 55
161 163 166 166 161 158 154 151 144 136 125 112 104 108 109 115 118 114 106 98 92 93 98 102 99 99 95 90 83 82 79 72 69 69 77 75 71 63 48 57 78 69 54
160 162 162 166 160 159 155 144 143 137 124 116 114 121 120 118 121 117 108 102 94 96 99 103 102 103 98 89 83 84 82 70 69 64 73 76 69 59 51 59 89 73 54
158 163 163 165 160 158 153 151 147 137 127 128 128 116 126 125 124 123 119 104 91 95 99 104 110 110 100 91 84 79 85 81 72 72 78 75 69 65 62 64 75 64 54
158 163 164 164 162 157 156 154 146 137 130 133 123 116 136 130 125 137 133 108 91 95 101 108 116 114 103 92 84 90 90 84 75 77 83 80 74 67 55 56 58 53 49
159 162 162 166 165 159 161 154 148 145 144 140 119 122 142 134 129 126 142 120 100 102 108 113 120 120 111 98 82 96 98 83 68 68 83 89 64 54 46 39 18 359 9
159 161 162 166 168 163 161 160 158 148 139 144 134 125 132 129 140 155 133 133 111 108 119 120 122 126 123 111 95 87 94 73 51 54 69 79 55 57 52 32 17 19 21
161 162 168 169 171 170 168 167 166 154 139 147 146 141 153 157 162 168 155 138 125 116 138 140 135 135 139 133 116 86 69 115 47 39 59 82 72 46 22 17 28 28 32
165 169 176 175 176 175 174 176 172 152 141 146 163 160 166 171 173 172 182 168 147 143 166 164 157 160 175 201 206 199 18 171 330 353 42 88 68 349 347 3 14 28 36
171 174 180 183 182 183 183 179 173 160 145 148 164 183 190 194 196 200 193 191 187 190 194 187 174 181 211 223 237 243 249 256 282 299 303 311 101 298 326 344 351 8 19
179 179 186 187 188 189 188 187 182 179 171 167 172 184 195 199 205 211 210 212 210 216 216 216 215 227 244 260 256 253 256 265 282 283 284 277 253 271 301 325 331 341 348
191 193 201 200 195 194 193 194 195 194 193 190 194 198 206 211 211 210 211 212 219 226 228 232 239 252 264 268 270 268 260 259 269 288 286 273 263 257 271 304 307 318 320
198 200 203 197 198 199 200 204 210 207 210 213 216 219 224 225 225 223 226 229 234 235 238 244 253 260 269 275 277 276 272 268 268 279 289 280 269 256 255 268 281 292 274
203 202 200 199 204 204 208 213 216 221 222 229 232 235 236 238 239 240 243 241 242 241 246 255 266 271 272 275 278 279 277 276 277 279 281 280 273 265 256 253 256 260 252
206 204 202 204 208 211 215 219 225 228 230 236 241 245 247 247 246 247 250 249 249 250 255 261 268 275 276 276 276 279 281 283 282 280 279 279 273 268 262 254 252 252 248
215 211 212 209 209 213 218 223 228 232 235 241 247 249 250 251 250 252 254 255 257 258 262 265 269 273 276 278 282 284 283 283 285 282 280 278 278 270 263 260 250 249 247
223 218 221 220 219 219 222 227 232 236 240 245 249 252 253 254 255 255 255 257 261 263 265 268 271 274 274 276 281 283 283 283 281 281 280 279 278 275 268 260 257 249 245
236 231 230 226 228 228 233 240 242 244 244 247 251 255 259 258 257 257 259 263 265 268 269 270 272 272 276 278 277 280 282 281 281 280 278 278 278 273 270 268 260 256 252
234 231 232 232 232 233 237 241 245 244 246 249 253 256 258 260 263 265 267 269 268 268 269 269 269 271 271 274 277 279 279 280 279 278 280 280 279 275 268 268 266 258 253
234 224 223 226 225 224 227 231 236 239 243 247 250 253 256 260 263 264 268 272 271 266 270 272 269 267 270 272 274 281 282 283 277 276 283 285 281 278 271 270 268 265 260
239 232 220 220 220 223 224 228 233 245 247 250 254 255 259 263 264 264 266 267 268 268 269 268 262 260 265 267 241 256 284 283 276 267 273 292 302 299 286 278 273 271 267
235 233 217 212 210 213 222 229 233 237 242 247 250 253 252 255 258 260 261 263 266 265 266 268 265 260 252 258 249 230 234 248 333 280 285 288 283 295 305 300 292 284 275
206 195 184 183 182 187 195 208 219 230 235 245 245 244 245 251 254 257 261 264 264 265 265 267 268 262 250 240 248 244 239 240 241 289 283 291 285 292 301 306 300 301 298
195 183 171 169 170 178 186 201 215 222 232 243 251 258 261 260 258 260 263 267 271 271 267 263 263 261 259 248 237 234 234 239 248 232 243 251 276 290 301 313 312 301 293
187 179 168 165 157 157 163 171 186 207 231 244 249 249 246 242 240 265 280 283 283 285 281 273 265 260 261 254 246 241 233 211 197 198 213 238 242 277 299 298 309 308 301